カタログに戻る

COSMOS 2251 DEB

運用中LEO
NORAD 34129·DEBRIS·🇷🇺 Russia

打ち上げ Jun 16, 1993 から Plesetsk Cosmodrome

Loading…

次のパス (今後24時間)

TLE

最新Source: Space-Track

元期: Sep 14, 2026, 03:24 UTC

1 34129U 93036LA  26257.14230922  .00004416  00000-0  58370-3 0  9996
2 34129  74.0323 158.5328 0033729 175.5461 184.6022 14.79903496653677

AllMySatでCOSMOS 2251 DEBをリアルタイム追跡

Download on the App Store